Zurück zum Katalog

THOR ABLESTAR DEB

AktivLEO
NORAD 410·DEBRIS·🇺🇸 United States

Gestartet Jun 29, 1961 von Cape Canaveral Space Force Station

Loading…

Nächste Überflüge (nächste 24 Stunden)

TLE

AktuellSource: Space-Track

Epoche: Sep 7, 2026, 07:07 UTC

1 00410U 61015EK  26250.29706402 -.00000009  00000-0  66492-4 0  9994
2 00410  66.6923 202.2424 0020240 298.6173 134.8849 13.76625101271378

Verfolge THOR ABLESTAR DEB in Echtzeit mit AllMySat

Download on the App Store